Time,TemperatureF,DewpointF,PressureIn,WindDirection,WindDirectionDegrees,WindSpeedMPH,WindSpeedGustMPH,Humidity,HourlyPrecipIn,Conditions,Clouds,dailyrainin,SoftwareType,DateUTC
2013-01-29 00:01:00,40.0,40.0,30.07,SE,131,0.0,-999.0,99,-99.99,,,-99.99,,2013-01-29 08:01:00,
2013-01-29 00:11:00,40.0,40.0,30.07,SE,131,0.0,-999.0,99,-99.99,,,-99.99,,2013-01-29 08:11:00,
2013-01-29 00:21:00,40.0,40.0,30.08,SE,131,1.0,-999.0,99,-99.99,,,-99.99,,2013-01-29 08:21:00,
2013-01-29 00:31:00,40.0,40.0,30.08,SE,131,0.0,-999.0,99,-99.99,,,-99.99,,2013-01-29 08:31:00,
2013-01-29 00:41:00,40.0,40.0,30.08,SE,131,0.0,-999.0,99,-99.99,,,-99.99,,2013-01-29 08:41:00,
2013-01-29 00:52:00,40.0,40.0,30.09,North,2,3.0,-999.0,99,-99.99,,,-99.99,,2013-01-29 08:52:00,
2013-01-29 01:01:00,40.0,40.0,30.08,North,2,1.0,-999.0,99,-99.99,,,-99.99,,2013-01-29 09:01:00,
2013-01-29 01:11:00,40.0,40.0,30.08,North,2,1.0,-999.0,99,-99.99,,,-99.99,,2013-01-29 09:11:00,
2013-01-29 01:21:00,40.0,40.0,30.09,SE,146,0.0,-999.0,99,-99.99,,,-99.99,,2013-01-29 09:21:00,
2013-01-29 01:31:00,40.0,40.0,30.08,SE,146,0.0,-999.0,99,-99.99,,,-99.99,,2013-01-29 09:31:00,
2013-01-29 01:42:00,40.0,40.0,30.08,SE,146,0.0,-999.0,99,-99.99,,,-99.99,,2013-01-29 09:42:00,
2013-01-29 01:52:00,40.0,40.0,30.09,SE,139,0.0,-999.0,99,-99.99,,,-99.99,,2013-01-29 09:52:00,
2013-01-29 02:01:00,40.0,40.0,30.09,SE,139,1.0,-999.0,99,-99.99,,,-99.99,,2013-01-29 10:01:00,
2013-01-29 02:11:00,40.0,40.0,30.09,SE,139,1.0,-999.0,99,-99.99,,,-99.99,,2013-01-29 10:11:00,
2013-01-29 02:21:00,40.0,40.0,30.09,SE,139,0.0,-999.0,99,-99.99,,,-99.99,,2013-01-29 10:21:00,
2013-01-29 02:32:00,40.0,40.0,30.09,SE,139,0.0,-999.0,99,-99.99,,,-99.99,,2013-01-29 10:32:00,
2013-01-29 02:41:00,40.0,40.0,30.09,SE,139,0.0,-999.0,99,-99.99,,,-99.99,,2013-01-29 10:41:00,
2013-01-29 02:52:00,40.0,40.0,30.10,SE,139,0.0,-999.0,99,-99.99,,,-99.99,,2013-01-29 10:52:00,
2013-01-29 03:01:00,41.0,41.0,30.11,SE,139,2.0,-999.0,99,-99.99,,,-99.99,,2013-01-29 11:01:00,
2013-01-29 03:11:00,41.0,41.0,30.11,SE,139,2.0,-999.0,99,-99.99,,,-99.99,,2013-01-29 11:11:00,
2013-01-29 03:21:00,41.0,41.0,30.11,SSE,149,0.0,-999.0,99,-99.99,,,-99.99,,2013-01-29 11:21:00,
2013-01-29 03:31:00,41.0,41.0,30.12,SSE,149,0.0,-999.0,99,-99.99,,,-99.99,,2013-01-29 11:31:00,
2013-01-29 03:41:00,41.0,41.0,30.12,SSE,149,0.0,-999.0,99,-99.99,,,-99.99,,2013-01-29 11:41:00,
2013-01-29 03:52:00,41.0,41.0,30.14,SSE,149,0.0,-999.0,99,-99.99,,,-99.99,,2013-01-29 11:52:00,
2013-01-29 04:02:00,41.0,41.0,30.13,SSE,149,0.0,-999.0,99,-99.99,,,-99.99,,2013-01-29 12:02:00,
2013-01-29 04:12:00,41.0,41.0,30.13,SSE,149,0.0,-999.0,99,-99.99,,,-99.99,,2013-01-29 12:12:00,
2013-01-29 04:21:00,41.0,41.0,30.14,SSE,149,0.0,-999.0,99,-99.99,,,-99.99,,2013-01-29 12:21:00,
2013-01-29 04:32:00,41.0,41.0,30.14,SSE,149,0.0,-999.0,99,-99.99,,,-99.99,,2013-01-29 12:32:00,
2013-01-29 04:42:00,41.0,41.0,30.14,SSE,149,0.0,-999.0,99,-99.99,,,-99.99,,2013-01-29 12:42:00,
2013-01-29 04:52:00,41.0,41.0,30.14,SSE,149,0.0,-999.0,99,-99.99,,,-99.99,,2013-01-29 12:52:00,
2013-01-29 05:01:00,41.0,41.0,30.14,SSE,149,0.0,-999.0,99,-99.99,,,-99.99,,2013-01-29 13:01:00,
2013-01-29 05:11:00,41.0,41.0,30.14,SSE,149,0.0,-999.0,99,-99.99,,,-99.99,,2013-01-29 13:11:00,
2013-01-29 05:22:00,41.0,41.0,30.14,SSE,149,0.0,-999.0,99,-99.99,,,-99.99,,2013-01-29 13:22:00,
2013-01-29 05:31:00,41.0,41.0,30.15,SSE,149,0.0,-999.0,99,-99.99,,,-99.99,,2013-01-29 13:31:00,
2013-01-29 05:42:00,41.0,41.0,30.15,SSE,149,0.0,-999.0,99,-99.99,,,-99.99,,2013-01-29 13:42:00,
2013-01-29 05:52:00,41.0,41.0,30.15,SSE,149,0.0,-999.0,99,-99.99,,,-99.99,,2013-01-29 13:52:00,
2013-01-29 06:01:00,41.0,41.0,30.15,SSE,149,0.0,-999.0,99,-99.99,,,-99.99,,2013-01-29 14:01:00,
2013-01-29 06:11:00,41.0,41.0,30.16,SSE,149,0.0,-999.0,99,-99.99,,,-99.99,,2013-01-29 14:11:00,
2013-01-29 06:21:00,41.0,41.0,30.16,SSE,149,0.0,-999.0,99,-99.99,,,-99.99,,2013-01-29 14:21:00,
2013-01-29 06:32:00,41.0,41.0,30.17,SSE,149,0.0,-999.0,99,-99.99,,,-99.99,,2013-01-29 14:32:00,
2013-01-29 06:42:00,41.0,41.0,30.17,SSE,149,0.0,-999.0,99,-99.99,,,-99.99,,2013-01-29 14:42:00,
2013-01-29 06:52:00,41.0,41.0,30.18,SSE,149,0.0,-999.0,99,-99.99,,,-99.99,,2013-01-29 14:52:00,
2013-01-29 07:01:00,41.0,41.0,30.18,SSE,149,0.0,-999.0,100,-99.99,,,-99.99,,2013-01-29 15:01:00,
2013-01-29 07:11:00,41.0,41.0,30.18,SSE,149,0.0,-999.0,100,-99.99,,,-99.99,,2013-01-29 15:11:00,
2013-01-29 07:21:00,41.0,41.0,30.18,SSE,149,0.0,-999.0,99,-99.99,,,-99.99,,2013-01-29 15:21:00,
2013-01-29 07:32:00,42.0,42.0,30.19,SSE,149,0.0,-999.0,99,-99.99,,,-99.99,,2013-01-29 15:32:00,
2013-01-29 07:42:00,42.0,42.0,30.19,SSE,149,0.0,-999.0,99,-99.99,,,-99.99,,2013-01-29 15:42:00,
2013-01-29 07:53:00,42.0,42.0,30.19,SSE,149,0.0,-999.0,99,-99.99,,,-99.99,,2013-01-29 15:53:00,
2013-01-29 08:01:00,42.0,42.0,30.20,SSE,149,0.0,-999.0,99,-99.99,,,-99.99,,2013-01-29 16:01:00,
2013-01-29 08:12:00,42.0,42.0,30.20,SSE,149,0.0,-999.0,99,-99.99,,,-99.99,,2013-01-29 16:12:00,
2013-01-29 08:21:00,42.0,42.0,30.20,SSE,149,0.0,-999.0,99,-99.99,,,-99.99,,2013-01-29 16:21:00,
2013-01-29 08:31:00,42.0,42.0,30.21,SSE,149,0.0,-999.0,99,-99.99,,,-99.99,,2013-01-29 16:31:00,
2013-01-29 08:42:00,42.0,42.0,30.21,SSE,149,0.0,-999.0,99,-99.99,,,-99.99,,2013-01-29 16:42:00,
2013-01-29 08:53:00,42.0,42.0,30.22,SSE,149,0.0,-999.0,99,-99.99,,,-99.99,,2013-01-29 16:53:00,
2013-01-29 09:02:00,42.0,42.0,30.22,SSE,149,0.0,-999.0,99,-99.99,,,-99.99,,2013-01-29 17:02:00,
2013-01-29 09:11:00,42.0,42.0,30.22,SSE,149,0.0,-999.0,99,-99.99,,,-99.99,,2013-01-29 17:11:00,
2013-01-29 09:21:00,42.0,42.0,30.22,SSE,149,0.0,-999.0,99,-99.99,,,-99.99,,2013-01-29 17:21:00,
2013-01-29 09:31:00,42.0,42.0,30.23,SSE,149,0.0,-999.0,99,-99.99,,,-99.99,,2013-01-29 17:31:00,
2013-01-29 09:41:00,42.0,42.0,30.23,SSE,149,0.0,-999.0,99,-99.99,,,-99.99,,2013-01-29 17:41:00,
2013-01-29 09:52:00,43.0,43.0,30.23,SSE,149,0.0,1.0,99,-99.99,,,-99.99,,2013-01-29 17:52:00,
2013-01-29 10:02:00,43.0,43.0,30.26,SSE,149,0.0,4.0,99,-99.99,,,-99.99,,2013-01-29 18:02:00,
2013-01-29 10:12:00,43.0,43.0,30.26,SSE,149,0.0,4.0,99,-99.99,,,-99.99,,2013-01-29 18:12:00,
2013-01-29 10:22:00,43.0,43.0,30.25,SSE,149,0.0,0.0,99,-99.99,,,-99.99,,2013-01-29 18:22:00,
2013-01-29 10:33:00,44.0,44.0,30.25,SSE,149,0.0,3.0,99,-99.99,,,-99.99,,2013-01-29 18:33:00,
2013-01-29 10:42:00,44.0,44.0,30.25,SSE,149,0.0,3.0,99,-99.99,,,-99.99,,2013-01-29 18:42:00,
2013-01-29 10:52:00,44.0,44.0,30.26,SSE,149,0.0,2.0,99,0.00,,,-99.99,,2013-01-29 18:52:00,
2013-01-29 11:01:00,44.0,44.0,30.27,SSE,149,0.0,2.0,99,0.00,,,-99.99,,2013-01-29 19:01:00,
2013-01-29 11:11:00,44.0,44.0,30.27,SSE,149,0.0,2.0,99,0.00,,,-99.99,,2013-01-29 19:11:00,
2013-01-29 11:22:00,44.0,44.0,30.28,SSE,149,0.0,2.0,100,0.00,,,-99.99,,2013-01-29 19:22:00,
2013-01-29 11:31:00,44.0,44.0,30.27,SSE,149,0.0,2.0,99,0.00,,,-99.99,,2013-01-29 19:31:00,
2013-01-29 11:41:00,44.0,44.0,30.27,SSE,149,0.0,2.0,99,0.00,,,-99.99,,2013-01-29 19:41:00,
2013-01-29 11:52:00,44.0,44.0,30.27,SSE,149,0.0,1.0,99,0.01,,,-99.99,,2013-01-29 19:52:00,
2013-01-29 12:01:00,44.0,44.0,30.28,SSE,149,0.0,3.0,99,0.01,,,-99.99,,2013-01-29 20:01:00,
2013-01-29 12:11:00,44.0,44.0,30.28,SSE,149,0.0,3.0,99,0.01,,,-99.99,,2013-01-29 20:11:00,
2013-01-29 12:21:00,44.0,44.0,30.28,SSE,149,1.0,2.0,99,0.02,,,-99.99,,2013-01-29 20:21:00,
2013-01-29 12:32:00,45.0,45.0,30.29,SSE,149,2.0,4.0,100,0.02,,,-99.99,,2013-01-29 20:32:00,
2013-01-29 12:41:00,45.0,45.0,30.29,SSE,149,2.0,4.0,100,0.02,,,-99.99,,2013-01-29 20:41:00,
2013-01-29 12:53:00,45.0,45.0,30.28,SSE,149,1.0,3.0,100,0.02,,,-99.99,,2013-01-29 20:53:00,
2013-01-29 13:01:00,45.0,45.0,30.29,SSE,149,0.0,3.0,99,0.03,,,-99.99,,2013-01-29 21:01:00,
2013-01-29 13:11:00,45.0,45.0,30.29,SSE,149,0.0,3.0,99,0.03,,,-99.99,,2013-01-29 21:11:00,
2013-01-29 13:22:00,45.0,45.0,30.28,SSE,149,0.0,2.0,100,0.03,,,-99.99,,2013-01-29 21:22:00,
2013-01-29 13:32:00,45.0,45.0,30.29,SSE,149,0.0,2.0,99,0.03,,,-99.99,,2013-01-29 21:32:00,
2013-01-29 13:41:00,45.0,45.0,30.29,SSE,149,0.0,2.0,99,0.03,,,-99.99,,2013-01-29 21:41:00,
2013-01-29 13:52:00,45.0,45.0,30.28,SSE,149,0.0,0.0,99,0.03,,,-99.99,,2013-01-29 21:52:00,
2013-01-29 14:01:00,45.0,45.0,30.28,SSE,149,0.0,1.0,99,0.03,,,-99.99,,2013-01-29 22:01:00,
2013-01-29 14:11:00,45.0,45.0,30.28,SSE,149,0.0,1.0,99,0.03,,,-99.99,,2013-01-29 22:11:00,
2013-01-29 14:21:00,45.0,45.0,30.29,SSE,149,1.0,3.0,100,0.03,,,-99.99,,2013-01-29 22:21:00,
2013-01-29 14:32:00,45.0,45.0,30.29,SSE,149,0.0,0.0,99,0.04,,,-99.99,,2013-01-29 22:32:00,
2013-01-29 14:42:00,45.0,45.0,30.29,SSE,149,0.0,0.0,99,0.04,,,-99.99,,2013-01-29 22:42:00,
2013-01-29 14:53:00,45.0,45.0,30.29,SSE,149,1.0,3.0,99,0.04,,,-99.99,,2013-01-29 22:53:00,
2013-01-29 15:01:00,45.0,45.0,30.29,SSE,149,1.0,3.0,99,0.03,,,-99.99,,2013-01-29 23:01:00,
2013-01-29 15:11:00,45.0,45.0,30.29,SSE,149,1.0,3.0,99,0.03,,,-99.99,,2013-01-29 23:11:00,
2013-01-29 15:22:00,45.0,45.0,30.30,SSE,149,0.0,3.0,99,0.03,,,-99.99,,2013-01-29 23:22:00,
2013-01-29 15:32:00,45.0,45.0,30.30,ENE,60,0.0,2.0,99,0.03,,,-99.99,,2013-01-29 23:32:00,
2013-01-29 15:41:00,45.0,45.0,30.30,ENE,60,0.0,2.0,99,0.03,,,-99.99,,2013-01-29 23:41:00,
2013-01-29 15:53:00,45.0,45.0,30.29,ENE,60,0.0,3.0,100,0.03,,,-99.99,,2013-01-29 23:53:00,
2013-01-29 16:02:00,45.0,45.0,30.29,ENE,60,0.0,2.0,99,0.03,,,-99.99,,2013-01-30 00:02:00,
2013-01-29 16:11:00,45.0,45.0,30.29,ENE,60,0.0,2.0,99,0.03,,,-99.99,,2013-01-30 00:11:00,
2013-01-29 16:21:00,45.0,45.0,30.31,SE,137,2.0,4.0,99,0.02,,,-99.99,,2013-01-30 00:21:00,
2013-01-29 16:32:00,45.0,45.0,30.30,SSE,150,3.0,5.0,100,0.01,,,-99.99,,2013-01-30 00:32:00,
2013-01-29 16:42:00,45.0,45.0,30.30,SSE,150,3.0,5.0,100,0.01,,,-99.99,,2013-01-30 00:42:00,
2013-01-29 16:52:00,45.0,45.0,30.31,SE,138,1.0,6.0,99,0.01,,,-99.99,,2013-01-30 00:52:00,
2013-01-29 17:01:00,45.0,45.0,30.30,SSE,161,0.0,7.0,99,0.01,,,-99.99,,2013-01-30 01:01:00,
2013-01-29 17:11:00,45.0,45.0,30.30,SSE,161,0.0,7.0,99,0.01,,,-99.99,,2013-01-30 01:11:00,
2013-01-29 17:22:00,45.0,45.0,30.31,SE,133,0.0,4.0,99,0.01,,,-99.99,,2013-01-30 01:22:00,
2013-01-29 17:31:00,45.0,45.0,30.31,SE,132,0.0,4.0,99,0.01,,,-99.99,,2013-01-30 01:31:00,
2013-01-29 17:42:00,45.0,45.0,30.31,SE,132,0.0,4.0,99,0.01,,,-99.99,,2013-01-30 01:42:00,
2013-01-29 17:52:00,45.0,45.0,30.31,SSE,158,3.0,7.0,99,0.00,,,-99.99,,2013-01-30 01:52:00,
2013-01-29 18:01:00,45.0,45.0,30.30,SSE,148,1.0,4.0,99,0.00,,,-99.99,,2013-01-30 02:01:00,
2013-01-29 18:11:00,45.0,45.0,30.30,SSE,148,1.0,4.0,99,0.00,,,-99.99,,2013-01-30 02:11:00,
2013-01-29 18:21:00,45.0,45.0,30.29,SSE,155,2.0,5.0,99,0.00,,,-99.99,,2013-01-30 02:21:00,
2013-01-29 18:32:00,45.0,45.0,30.30,SSE,155,0.0,6.0,99,0.00,,,-99.99,,2013-01-30 02:32:00,
2013-01-29 18:41:00,45.0,45.0,30.30,SSE,155,0.0,6.0,99,0.00,,,-99.99,,2013-01-30 02:41:00,
2013-01-29 18:53:00,44.0,44.0,30.31,SSE,155,1.0,4.0,99,0.00,,,-99.99,,2013-01-30 02:53:00,
2013-01-29 19:02:00,44.0,44.0,30.30,SSE,155,2.0,5.0,99,0.00,,,-99.99,,2013-01-30 03:02:00,
2013-01-29 19:11:00,44.0,44.0,30.30,SSE,155,2.0,5.0,99,0.00,,,-99.99,,2013-01-30 03:11:00,
2013-01-29 19:21:00,45.0,45.0,30.32,SSE,155,0.0,5.0,99,0.00,,,-99.99,,2013-01-30 03:21:00,
2013-01-29 19:31:00,44.0,44.0,30.32,SSE,155,2.0,6.0,99,0.00,,,-99.99,,2013-01-30 03:31:00,
2013-01-29 19:41:00,44.0,44.0,30.32,SSE,155,2.0,6.0,99,0.00,,,-99.99,,2013-01-30 03:41:00,
2013-01-29 19:52:00,44.0,44.0,30.30,SE,142,2.0,5.0,99,0.00,,,-99.99,,2013-01-30 03:52:00,
2013-01-29 20:01:00,44.0,44.0,30.31,SE,130,0.0,3.0,99,0.02,,,-99.99,,2013-01-30 04:01:00,
2013-01-29 20:11:00,44.0,44.0,30.31,SE,130,0.0,3.0,99,0.02,,,-99.99,,2013-01-30 04:11:00,
2013-01-29 20:21:00,44.0,44.0,30.31,SW,227,2.0,4.0,99,0.03,,,-99.99,,2013-01-30 04:21:00,
2013-01-29 20:31:00,44.0,44.0,30.31,NNE,20,1.0,6.0,99,0.05,,,-99.99,,2013-01-30 04:31:00,
2013-01-29 20:41:00,44.0,44.0,30.31,NNE,20,1.0,6.0,99,0.05,,,-99.99,,2013-01-30 04:41:00,
2013-01-29 20:52:00,44.0,44.0,30.32,SE,136,0.0,4.0,99,0.07,,,-99.99,,2013-01-30 04:52:00,
2013-01-29 21:03:00,44.0,44.0,30.31,WNW,283,1.0,3.0,99,0.07,,,-99.99,,2013-01-30 05:03:00,
2013-01-29 21:11:00,44.0,44.0,30.31,WNW,283,1.0,3.0,99,0.07,,,-99.99,,2013-01-30 05:11:00,
2013-01-29 21:22:00,44.0,44.0,30.31,North,5,0.0,4.0,99,0.07,,,-99.99,,2013-01-30 05:22:00,
2013-01-29 21:31:00,44.0,44.0,30.31,SE,143,2.0,6.0,99,0.07,,,-99.99,,2013-01-30 05:31:00,
2013-01-29 21:42:00,44.0,44.0,30.31,SE,143,2.0,6.0,99,0.07,,,-99.99,,2013-01-30 05:42:00,
2013-01-29 21:52:00,44.0,44.0,30.32,SSE,154,1.0,6.0,99,0.07,,,-99.99,,2013-01-30 05:52:00,
2013-01-29 22:02:00,44.0,44.0,30.32,SE,126,1.0,5.0,99,0.06,,,-99.99,,2013-01-30 06:02:00,
2013-01-29 22:11:00,44.0,44.0,30.32,SE,126,1.0,5.0,99,0.06,,,-99.99,,2013-01-30 06:11:00,
2013-01-29 22:21:00,43.0,43.0,30.32,SSE,153,0.0,6.0,99,0.07,,,-99.99,,2013-01-30 06:21:00,
2013-01-29 22:31:00,43.0,43.0,30.32,North,2,1.0,4.0,99,0.08,,,-99.99,,2013-01-30 06:31:00,
2013-01-29 22:41:00,43.0,43.0,30.32,North,2,1.0,4.0,99,0.08,,,-99.99,,2013-01-30 06:41:00,
2013-01-29 22:52:00,43.0,43.0,30.32,SE,144,1.0,6.0,99,0.10,,,-99.99,,2013-01-30 06:52:00,
2013-01-29 23:01:00,43.0,43.0,30.32,SSE,166,1.0,7.0,99,0.11,,,-99.99,,2013-01-30 07:01:00,
2013-01-29 23:11:00,43.0,43.0,30.32,SSE,166,1.0,7.0,99,0.11,,,-99.99,,2013-01-30 07:11:00,
2013-01-29 23:21:00,43.0,43.0,30.32,SE,139,2.0,-999.0,99,-99.99,,,-99.99,,2013-01-30 07:21:00,
2013-01-29 23:31:00,43.0,43.0,30.32,SE,145,0.0,-999.0,99,-99.99,,,-99.99,,2013-01-30 07:31:00,
2013-01-29 23:41:00,43.0,43.0,30.32,SE,145,0.0,-999.0,99,-99.99,,,-99.99,,2013-01-30 07:41:00,
2013-01-29 23:52:00,43.0,43.0,30.32,SE,126,4.0,-999.0,99,-99.99,,,-99.99,,2013-01-30 07:52:00,